Bloomington, IN

8:07 PM EST on February 19, 2017 (GMT -0500)
Monroe County

Weather History for KBMG - August, 2013

Change the Weather History Date:

Friday, August 16, 2013

  Actual Average Record
Temperature  
Mean Temperature 64 °F 73 °F  
Max Temperature 77 °F 85 °F 95 °F (2007)
Min Temperature 50 °F 62 °F 50 °F (2004)
Degree Days  
Heating Degree Days 1 0  
Month to date heating degree days 10 0  
Since 1 June heating degree days 21 17  
Since 1 July heating degree days 14 2  
Cooling Degree Days 0 8  
Month to date cooling degree days 95 143  
Year to date cooling degree days 683 709  
Since 1 June cooling degree days 564 627  
Growing Degree Days 14 (Base 50)    
Moisture  
Dew Point 53 °F    
Average Humidity 72    
Maximum Humidity 100    
Minimum Humidity 43    
Precipitation  
Precipitation 0.00 in 0.10 in 2.12 in (2015)
Month to date precipitation 0.25 1.66  
Year to date precipitation 29.09 31.33  
Sea Level Pressure  
Sea Level Pressure 30.13 in    
Wind  
Wind Speed 4 mph (NE)    
Max Wind Speed 13 mph    
Max Gust Speed 17 mph    
Visibility 10 miles    
Events      
T = Trace of Precipitation, MM = Missing Value Source: NWS Daily Summary

Daily Weather History Graph

Daily Weather History Graph

Search for Another Location

Airport or City:

Trip Planner

Search our weather history database for the weather conditions in past years. The results will help you decide how hot, cold, wet, or windy it might be!

Date:

Astronomy

Aug. 16, 2013 Rise Set
Actual Time 7:00 AM EDT 8:39 PM EDT
Civil Twilight 6:32 AM EDT 9:08 PM EDT
Nautical Twilight 5:57 AM EDT 9:42 PM EDT
Astronomical Twilight 5:21 AM EDT 10:19 PM EDT
Moon 4:57 PM EDT (8/16) 2:03 AM EDT (8/16)
Length of Visible Light 14h 36m
Length of Day
13h 39m
Waxing Gibbous, 74% of the Moon is Illuminated
Aug 16
Waxing Gibbous
Aug 20
Full
Aug 28
Last Quarter
Sep 5
New
Sep 12
First Quarter

Hourly Weather History & Observations

Time (EDT) Temp. Dew Point Humidity Pressure Visibility Wind Dir Wind Speed Gust Speed Precip Events Conditions
1:53 AM 53.1 °F 51.1 °F 93% 30.12 in 10.0 mi Calm Calm - N/A   Clear
2:53 AM 54.0 °F 53.1 °F 97% 30.12 in 10.0 mi Calm Calm - N/A   Clear
3:53 AM 53.1 °F 52.0 °F 96% 30.10 in 10.0 mi Calm Calm - N/A   Clear
4:53 AM 52.0 °F 50.0 °F 93% 30.10 in 10.0 mi Calm Calm - N/A   Clear
5:53 AM 51.1 °F 48.9 °F 92% 30.11 in 9.0 mi Calm Calm - N/A   Clear
6:53 AM 50.0 °F 48.9 °F 96% 30.12 in 10.0 mi Calm Calm - N/A   Clear
7:53 AM 55.0 °F 53.1 °F 93% 30.14 in 10.0 mi Calm Calm - N/A   Clear
8:53 AM 62.1 °F 55.0 °F 78% 30.14 in 10.0 mi Calm Calm - N/A   Clear
9:53 AM 66.9 °F 55.0 °F 66% 30.14 in 10.0 mi Calm Calm - N/A   Clear
10:53 AM 70.0 °F 53.1 °F 55% 30.14 in 10.0 mi East 5.8 mph - N/A   Clear
11:53 AM 73.9 °F 53.1 °F 48% 30.14 in 10.0 mi ESE 9.2 mph - N/A   Mostly Cloudy
12:53 PM 73.0 °F 55.0 °F 53% 30.14 in 10.0 mi NE 4.6 mph - N/A   Mostly Cloudy
1:53 PM 73.9 °F 54.0 °F 50% 30.14 in 10.0 mi ENE 8.1 mph - N/A   Mostly Cloudy
2:53 PM 75.9 °F 55.0 °F 48% 30.13 in 10.0 mi NE 10.4 mph - N/A   Mostly Cloudy
3:53 PM 75.9 °F 54.0 °F 46% 30.11 in 10.0 mi NNE 11.5 mph 16.1 mph N/A   Partly Cloudy
4:53 PM 77.0 °F 54.0 °F 45% 30.11 in 10.0 mi NE 5.8 mph - N/A   Partly Cloudy
5:53 PM 75.0 °F 54.0 °F 48% 30.12 in 10.0 mi ENE 6.9 mph - N/A   Mostly Cloudy
6:53 PM 73.9 °F 55.0 °F 52% 30.12 in 10.0 mi NE 6.9 mph - N/A   Partly Cloudy
7:53 PM 72.0 °F 55.9 °F 57% 30.12 in 10.0 mi NNE 6.9 mph - N/A   Clear
8:53 PM 66.9 °F 55.9 °F 68% 30.13 in 10.0 mi NNE 4.6 mph - N/A   Clear
9:53 PM 66.9 °F 54.0 °F 63% 30.14 in 10.0 mi NE 5.8 mph - N/A   Clear
10:53 PM 64.9 °F 53.1 °F 65% 30.15 in 10.0 mi NE 3.5 mph - N/A   Clear
11:53 PM 64.9 °F 53.1 °F 65% 30.14 in 10.0 mi ENE 4.6 mph - N/A   Clear